GW2968 Weather Reports


time (UTC)temp
F
wind
direction
speed
knots
gust
knots
rain 1hr
in
rain 24hr
in
rain mn
in
humidity
%
barometer
mb
20260507080050 46 331 3.5 7.0 0.00 0.20 0.00 100 1013.2
20260507074549 46 320 5.2 7.8 0.00 0.20 0.00 100 1013.0
20260507073052 47 333 3.5 7.8 0.00 0.20 0.00 100 1012.8
20260507071639 45 329 3.5 7.8 0.00 0.20 0.00 100 1012.7
20260507070041 45 350 0.9 4.3 0.00 0.20 0.00 100 1012.7
20260507064542 44 274 0.0 4.3 0.00 0.20 0.00 100 1012.6
20260507063028 44 286 1.7 3.5 0.00 0.20 0.00 100 1012.4
20260507061625 43 303 1.7 4.3 0.00 0.20 0.00 100 1012.3
20260507060020 43 288 1.7 5.2 0.00 0.20 0.00 100 1012.1
20260507054520 43 296 1.7 6.1 0.00 0.20 0.00 100 1011.9
20260507053011 43 293 2.6 4.3 0.00 0.20 0.00 100 1011.7
20260507051607 43 280 2.6 3.5 0.00 0.20 0.00 100 1011.5
20260507050006 43 297 2.6 5.2 0.00 0.22 0.00 100 1011.3
20260507044504 43 284 2.6 5.2 0.00 0.22 0.00 100 1011.2
20260507043058 43 292 1.7 4.3 0.00 0.22 0.00 100 1011.1
20260507041558 43 279 0.9 3.5 0.00 0.22 0.00 100 1010.9
20260507040056 43 279 1.7 3.5 0.00 0.22 0.00 100 1010.8
20260507034602 43 292 2.6 3.5 0.00 0.22 0.00 100 1010.7
20260507033100 43 295 0.9 3.5 0.00 0.22 0.00 100 1010.7
20260507031537 43 291 2.6 4.3 0.00 0.22 0.00 100 1010.6
20260507030032 43 309 2.6 5.2 0.00 0.22 0.00 100 1010.6
20260507024530 43 277 2.6 3.5 0.00 0.22 0.00 100 1010.5
20260507023025 43 300 0.9 3.5 0.00 0.22 0.00 100 1010.5
20260507021519 43 317 1.7 3.5 0.00 0.22 0.00 100 1010.4
20260507020017 43 310 1.7 3.5 0.00 0.22 0.00 100 1010.3
20260507014519 43 334 1.7 6.1 0.00 0.22 0.00 100 1010.2
20260507013012 43 309 0.9 3.5 0.00 0.22 0.00 100 1010.1
20260507011506 43 309 1.7 3.5 0.00 0.22 0.00 100 1010.0
20260507010003 43 311 1.7 3.5 0.00 0.23 0.00 100 1009.9
20260507004557 43 317 0.9 3.5 0.00 0.23 0.00 100 1009.7
20260507003053 43 333 0.9 5.2 0.00 0.23 0.00 100 1009.6
20260507001607 43 314 0.0 2.6 0.00 0.23 0.00 100 1009.6
20260507000047 43 317 0.0 1.7 0.00 0.24 0.00 100 1009.5
20260506234552 43 317 0.9 3.5 0.00 0.24 0.00 100 1009.6
20260506233040 43 316 0.9 2.6 0.00 0.24 0.00 100 1009.6
20260506231537 43 315 0.0 3.5 0.00 0.24 0.00 100 1009.5
20260506230030 43 305 0.9 2.6 0.00 0.31 0.00 100 1009.5
20260506224529 44 307 0.9 3.5 0.00 0.31 0.00 100 1009.2
20260506223022 44 349 3.5 7.0 0.00 0.31 0.00 100 1009.0
20260506221518 44 315 2.6 5.2 0.00 0.31 0.00 100 1009.0
20260506220029 44 316 0.0 3.5 0.00 0.51 0.31 100 1008.9
20260506214510 44 341 1.7 4.3 0.00 0.51 0.31 100 1008.9
20260506213005 44 306 1.7 3.5 0.00 0.51 0.31 100 1008.8
20260506211505 44 295 2.6 5.2 0.00 0.51 0.31 100 1008.7
20260506210059 44 311 1.7 7.0 0.00 0.57 0.31 100 1008.6
20260506204555 44 327 2.6 5.2 0.00 0.57 0.31 100 1008.6
20260506203058 44 320 0.9 2.6 0.00 0.57 0.31 100 1008.5
20260506201547 44 319 0.0 4.3 0.00 0.57 0.31 100 1008.3
20260506200045 44 320 2.6 7.0 0.00 0.61 0.31 100 1008.2
20260506194545 44 323 2.6 4.3 0.00 0.61 0.31 100 1008.1
20260506193043 44 304 4.3 6.1 0.00 0.61 0.31 100 1008.0
20260506191533 44 337 2.6 6.1 0.00 0.61 0.31 100 1007.8
20260506190038 44 327 2.6 6.1 0.00 0.65 0.31 100 1007.7
20260506184532 45 308 2.6 5.2 0.00 0.65 0.31 100 1007.4
20260506183029 45 324 1.7 3.5 0.00 0.65 0.31 100 1007.2
20260506181523 45 325 0.0 2.6 0.00 0.65 0.31 100 1007.1
20260506180012 45 325 0.9 3.5 0.00 0.69 0.31 100 1007.0
20260506174508 45 323 2.6 5.2 0.00 0.69 0.31 100 1006.9
20260506173004 46 304 2.6 5.2 0.00 0.69 0.31 100 1006.7
20260506171606 46 324 0.0 4.3 0.00 0.69 0.31 100 1006.6
20260506170110 46 301 1.7 4.3 0.00 0.75 0.31 100 1006.5
20260506170000 46 300 1.7 4.3 0.00 0.75 0.31 100 1006.5
20260506164557 46 314 1.7 3.5 0.00 0.75 0.31 100 1006.5
20260506163054 47 324 1.7 4.3 0.00 0.75 0.31 100 1006.3
20260506161549 47 5 1.7 5.2 0.01 0.75 0.31 100 1006.3
20260506160058 47 309 2.6 7.0 0.01 0.79 0.31 100 1006.1
20260506154541 47 309 2.6 7.8 0.02 0.79 0.31 100 1006.1
20260506153036 47 336 4.3 7.8 0.02 0.79 0.31 100 1006.0
20260506151533 47 336 3.5 9.6 0.04 0.78 0.30 100 1005.8
20260506150026 48 333 3.5 6.1 0.05 0.78 0.30 100 1005.7
20260506144521 48 303 2.6 6.1 0.06 0.78 0.30 100 1005.6
20260506143017 48 311 3.5 7.8 0.05 0.76 0.28 100 1005.6
20260506141512 49 292 4.3 7.0 0.05 0.76 0.28 100 1005.5
20260506140012 49 285 3.5 7.0 0.03 0.73 0.25 100 1005.4
20260506134507 49 312 2.6 4.3 0.02 0.72 0.24 100 1005.2
20260506133004 49 320 2.6 4.3 0.03 0.72 0.24 100 1005.1
20260506131604 49 312 2.6 5.2 0.03 0.71 0.23 100 1005.1
20260506130056 50 312 2.6 5.2 0.04 0.71 0.22 100 1005.0
20260506124555 50 319 3.5 6.1 0.05 0.71 0.22 100 1005.0
20260506123046 49 329 3.5 7.0 0.04 0.70 0.21 100 1004.9
20260506121543 50 330 1.7 4.3 0.02 0.69 0.20 100 1004.9
20260506120041 50 343 3.5 7.8 0.02 0.68 0.19 100 1004.8
20260506114536 50 317 3.5 5.2 0.02 0.67 0.18 100 1004.6
20260506113032 50 335 0.0 2.6 0.01 0.66 0.17 100 1004.6
20260506111528 50 337 0.0 4.3 0.01 0.66 0.17 100 1004.5
20260506110025 50 317 0.9 3.5 0.00 0.65 0.17 100 1004.6
20260506104521 50 321 3.5 6.1 0.00 0.65 0.17 100 1004.5
20260506103025 50 261 0.9 3.5 0.00 0.65 0.17 100 1004.4
20260506101512 51 269 1.7 6.1 0.00 0.65 0.17 100 1004.3
20260506100007 51 332 3.5 6.1 0.00 0.65 0.17 100 1004.2
20260506094504 51 261 0.0 4.3 0.01 0.65 0.17 100 1004.2
20260506093059 51 213 1.7 4.3 0.03 0.65 0.17 100 1004.2
20260506091555 50 257 1.7 4.3 0.05 0.65 0.17 100 1004.1
20260506090053 50 226 0.0 3.5 0.05 0.65 0.17 100 1004.1
20260506084548 50 207 0.0 2.6 0.04 0.65 0.16 100 1004.1
20260506083044 49 234 0.0 2.6 0.02 0.63 0.14 100 1004.0
20260506081540 50 260 0.9 1.7 0.01 0.61 0.12 100 1003.9